Current weather by "City, St" or "zip code"  
 

Current Conditions: Kalispell, Glacier Park International Airport, MT

Overcast


21.0 F

Last Updated on Oct 24 2020, 10:55 am MDT
Humidity: 50%
Wind Speed: N 16.1 mph
Barometer 30.30 in
Dewpoint: 5.0 F
Visibility: 10.00 mi
Precip: --
Heat Index: NA
Wind Chill: 7 F
Current conditions at:

Kalispell, Glacier Park International Airport, MT (KGPI)

Lat: 48.30417 Lon: 114.26361

Local Radar Image active severe weather and emergency alerts image image weather storm and storm spotter reports image weather observation monitoring service image
Local
Radar
Active
Alerts
Storm Reports Obs
Monitoring

Sign-up For Email & Text Message Weather Alert Notification Services



Advertise Here

Observation History for Kalispell, Glacier Park International Airport, MT


Time Wind
(mph)
Vis
(mi)
Weather Precip (in) Temperature (F) Relative
Humidity
Wind
Chill
(F)
Heat
Index
(F)
Pressure
Air Dwpt altimeter
(in)
sea level
(mb)
Rmks
10:55 am MDT N 16.1 10.00 Overcast -- 21.0 5.0 50% 7 NA 30.30 1030.3
9:55 am MDT N 13.8 10.00 Overcast -- 20.0 5.0 52% 7 NA 30.28 1029.3
8:55 am MDT N 17.3 10.00 Overcast -- 20.0 6.1 55% 5 NA 30.24 1027.9
7:55 am MDT N 18.4 G 29.9 10.00 Overcast -- 20.0 6.1 55% 5 NA 30.20 1026.5
6:55 am MDT N 21.9 10.00 Overcast and Breezy -- 21.0 8.1 57% 5 NA 30.18 1025.7
5:55 am MDT N 23.0 G 31.1 10.00 Overcast and Breezy -- 21.0 10.0 62% 5 NA 30.15 1024.5
4:55 am MDT N 25.3 G 33.4 8.00 Overcast and Breezy Trace 21.0 12.0 68% 4 NA 30.10 1022.9
3:55 am MDT N 25.3 G 33.4 5.00 Overcast with Haze and Breezy Trace 21.0 14.0 74% 4 NA 30.06 1021.6
2:55 am MDT N 26.5 G 34.5 1.50 Light Snow and Windy -- 20.0 15.1 81% 2 NA 30.05 1021.4
1:55 am MDT N 25.3 G 34.5 2.00 Light Snow and Breezy Trace 20.0 15.1 81% 3 NA 30.00 1019.5
12:55 am MDT N 27.6 G 35.7 1.75 Light Snow and Windy Trace 21.0 15.1 78% 3 NA 29.97 1018.5
11:55 pm MDT N 28.8 G 38.0 2.00 Unknown Precip and Windy Trace 21.0 15.1 78% 3 NA 29.94 1017.5
10:55 pm MDT N 29.9 G 35.7 2.00 Unknown Precip and Windy Trace 22.0 17.1 82% 4 NA 29.92 1016.4
9:55 pm MDT N 26.5 G 34.5 7.00 Overcast and Windy 00.01 25.0 18.0 75% 9 NA 29.91 1016.3
8:55 pm MDT N 15.0 G 24.2 7.00 Light Snow 00.01 28.0 23.0 81% 16 NA 29.90 1015.8
7:55 pm MDT N 5.8 1.75 Light Snow Fog/Mist 00.03 28.0 27.0 96% 22 NA 29.91 1016.3
6:55 pm MDT NE 4.6 0.50 Light Snow Freezing Fog 00.06 28.0 27.0 96% 23 NA 29.93 1016.9
5:55 pm MDT NE 5.8 0.50 Light Snow Freezing Fog 00.06 28.0 27.0 96% 22 NA 29.95 1017.5
4:55 pm MDT N 0.0 0.50 Light Snow Freezing Fog 00.07 29.0 27.0 92% NA NA 29.98 1018.3
3:54 pm MDT N 3.5 0.25 Light Snow Freezing Fog 00.06 29.0 27.0 92% NA NA 30.01 1019.3
2:55 pm MDT NE 4.6 0.50 Light Snow Freezing Fog 00.06 28.0 26.1 92% 23 NA 30.03 1020.0
1:55 pm MDT SE 5.8 0.50 Light Snow Freezing Fog 00.02 28.0 26.1 92% 22 NA 30.07 1021.6
12:55 pm MDT SE 6.9 0.50 Light Snow Freezing Fog 00.02 28.0 25.0 88% 21 NA 30.10 1022.6
11:55 am MDT N 0.0 3.00 Light Snow Trace 29.0 21.9 75% NA NA 30.13 1023.3

Regional Weather Observation


Boundary County Airport, ID (K65S)

Fair
27.0 F

Mullan Pass, Mullan Pass Vor, MT (KMLP)

Snow
13.0 F

Cut Bank, Cut Bank Municipal Airport, MT (KCTB)

Light Snow
10.0 F

Sandpoint, Sandpoint Airport, ID (KSZT)

Fair and Breezy
28.0 F

Coeur dAlene Airport - Pappy Boyington Field, ID (KCOE)

Fair
25.0 F

Missoula, Missoula International Airport, MT (KMSO)

Overcast
22.0 F